カタログに戻る

STARLINK-4385

運用中通信SSO
NORAD 53198·PAYLOAD·🇺🇸 United States

打ち上げ Jul 22, 2022 から Vandenberg Space Force Base

Loading…

次のパス (今後24時間)

TLE

最新Source: CelesTrak SupGP

元期: Sep 15, 2026, 02:08 UTC

1 53198C 22084K   26258.08937500  .00047663  00000+0  14798-2 0  2581
2 53198  97.2834 312.9287 0001286  82.4494 326.5804 15.33411057    10

AllMySatでSTARLINK-4385をリアルタイム追跡

Download on the App Store